AFR27HK LFPG-RJTT

Flight info

Callsign AFR27HK
Flight time N/A
Altitude 29000
Route BUBLI DCT LUVAL DCT BEGAR DCT TRA DCT GAMSA N871 MADEB N606 ELMEM L607 GEDSO DCT PODET DCT RIGMU/N0496F310 DCT MAVIT DCT LAMIT DCT ASNEL DCT UDROS DCT BAMUP DCT ROLIN N644 TETRO DCT BARAD M747 SUBUT T916 LEYLA N161 ABTEK/N0492F330 N161 GASBI/K0911F330 N161 SARIN/K0907S1010 A368 FKG W188 ESGIV/K0895S1070 W188 LIKMI W270 DKO W69 HUR B339 LADIX W34 VAPGU W100 ORAVA W201 UNSEK A326 DONVO G597 AGAVO/N0484F350 Y644 EGOBA G597 PILIT/N0486F370 G597 LANAT Y71 XAC
Aircraft B77W/H-SDE1E2E3FGHIJ2J3J4J5M1RWXY/LB1D1

Departure

Time 2026-05-08 20:29
Airport Charles de Gaulle International Airport (LFPG)

Arrival

Time N/A
Airport Tokyo Haneda International Airport (RJTT)
Time Latitude Longitude Altitude Speed Heading
2026-05-08 19:37 49.00573 2.58959 337 ft 0 kts 86°
2026-05-08 20:07 49.00573 2.58957 337 ft 1 kts 86°
2026-05-08 20:07 49.00572 2.58934 337 ft 2 kts 86°
2026-05-08 20:08 49.00571 2.58912 337 ft 2 kts 86°
2026-05-08 20:08 49.00569 2.58889 337 ft 2 kts 74°
2026-05-08 20:08 49.00563 2.58869 337 ft 2 kts 51°
2026-05-08 20:08 49.00552 2.58853 337 ft 2 kts 32°
2026-05-08 20:09 49.00538 2.58844 336 ft 2 kts 13°
2026-05-08 20:09 49.00523 2.58842 337 ft 2 kts 354°
2026-05-08 20:09 49.00509 2.58845 337 ft 2 kts 355°
2026-05-08 20:09 49.00496 2.58846 337 ft 0 kts 357°
2026-05-08 20:10 49.00491 2.58846 337 ft 0 kts 356°
2026-05-08 20:15 49.00510 2.58844 336 ft 6 kts 356°
2026-05-08 20:15 49.00566 2.58838 337 ft 7 kts 355°
2026-05-08 20:15 49.00610 2.58832 338 ft 6 kts 355°
2026-05-08 20:15 49.00667 2.58825 339 ft 9 kts 355°
2026-05-08 20:16 49.00727 2.58817 339 ft 6 kts 355°
2026-05-08 20:16 49.00749 2.58814 339 ft 0 kts 355°
2026-05-08 20:17 49.00750 2.58814 339 ft 1 kts 355°
2026-05-08 20:17 49.00782 2.58810 339 ft 6 kts 355°
2026-05-08 20:17 49.00821 2.58815 339 ft 5 kts 22°
2026-05-08 20:18 49.00855 2.58879 340 ft 11 kts 78°
2026-05-08 20:18 49.00867 2.59029 339 ft 16 kts 86°
2026-05-08 20:18 49.00876 2.59213 339 ft 17 kts 85°
2026-05-08 20:18 49.00873 2.59375 339 ft 12 kts 122°
2026-05-08 20:19 49.00796 2.59414 339 ft 11 kts 173°
2026-05-08 20:19 49.00719 2.59424 337 ft 10 kts 176°
2026-05-08 20:19 49.00645 2.59432 336 ft 10 kts 175°
2026-05-08 20:19 49.00572 2.59442 336 ft 10 kts 175°
2026-05-08 20:20 49.00497 2.59451 336 ft 11 kts 175°
2026-05-08 20:20 49.00408 2.59462 335 ft 15 kts 175°
2026-05-08 20:20 49.00280 2.59478 333 ft 18 kts 176°
2026-05-08 20:20 49.00162 2.59493 333 ft 15 kts 176°
2026-05-08 20:21 49.00088 2.59482 331 ft 9 kts 229°
2026-05-08 20:21 49.00067 2.59361 332 ft 13 kts 264°
2026-05-08 20:21 49.00058 2.59213 333 ft 15 kts 265°
2026-05-08 20:21 49.00048 2.59023 333 ft 20 kts 265°
2026-05-08 20:22 49.00038 2.58823 333 ft 17 kts 266°
2026-05-08 20:22 49.00029 2.58652 333 ft 14 kts 265°
2026-05-08 20:22 49.00020 2.58505 333 ft 14 kts 265°
2026-05-08 20:22 49.00013 2.58394 333 ft 17 kts 265°
2026-05-08 20:23 48.99999 2.58101 333 ft 23 kts 266°
2026-05-08 20:23 48.99987 2.57863 333 ft 20 kts 265°
2026-05-08 20:23 48.99976 2.57669 336 ft 16 kts 265°
2026-05-08 20:23 48.99967 2.57504 336 ft 15 kts 265°
2026-05-08 20:24 48.99958 2.57342 335 ft 15 kts 265°
2026-05-08 20:24 48.99949 2.57174 335 ft 16 kts 265°
2026-05-08 20:24 48.99939 2.56994 336 ft 17 kts 265°
2026-05-08 20:24 48.99928 2.56785 336 ft 23 kts 265°
2026-05-08 20:25 48.99915 2.56526 336 ft 23 kts 266°
2026-05-08 20:25 48.99903 2.56297 336 ft 19 kts 265°
2026-05-08 20:25 48.99891 2.56104 337 ft 16 kts 265°
2026-05-08 20:25 48.99892 2.55947 337 ft 14 kts 279°
2026-05-08 20:26 48.99886 2.55821 337 ft 11 kts 230°
2026-05-08 20:26 48.99817 2.55800 336 ft 9 kts 178°
2026-05-08 20:26 48.99772 2.55805 336 ft 0 kts 175°
2026-05-08 20:27 48.99760 2.55807 336 ft 5 kts 175°
2026-05-08 20:27 48.99694 2.55815 336 ft 13 kts 175°
2026-05-08 20:27 48.99636 2.55824 336 ft 5 kts 170°
2026-05-08 20:27 48.99610 2.55864 335 ft 6 kts 106°
2026-05-08 20:28 48.99605 2.55936 335 ft 7 kts 90°
2026-05-08 20:28 48.99613 2.56107 335 ft 36 kts 85°
2026-05-08 20:28 48.99652 2.56817 333 ft 96 kts 85°
2026-05-08 20:28 48.99721 2.58130 331 ft 149 kts 85°
2026-05-08 20:29 48.99818 2.59938 336 ft 193 kts 85°
2026-05-08 20:29 48.99907 2.62015 748 ft 200 kts 84°
2026-05-08 20:29 49.00035 2.64163 1283 ft 210 kts 83°
2026-05-08 20:29 49.00161 2.66397 1840 ft 215 kts 85°
2026-05-08 20:30 49.00286 2.68752 2075 ft 230 kts 85°
2026-05-08 20:30 49.00413 2.71190 2529 ft 234 kts 85°
2026-05-08 20:30 49.00543 2.73698 2844 ft 246 kts 85°
2026-05-08 20:30 49.00679 2.76339 3237 ft 255 kts 85°
2026-05-08 20:31 49.00731 2.79074 3573 ft 265 kts 97°
2026-05-08 20:31 49.00451 2.81868 4076 ft 269 kts 99°
2026-05-08 20:31 49.00131 2.84680 4619 ft 271 kts 99°
2026-05-08 20:31 48.99804 2.87522 5169 ft 274 kts 99°
2026-05-08 20:32 48.99474 2.90393 5648 ft 278 kts 99°
2026-05-08 20:32 48.99141 2.93274 6162 ft 280 kts 99°
2026-05-08 20:32 48.98801 2.96203 6635 ft 284 kts 100°
2026-05-08 20:32 48.98193 2.99045 7067 ft 287 kts 114°
2026-05-08 20:33 48.97376 3.01795 7596 ft 288 kts 115°
2026-05-08 20:33 48.96527 3.04601 8044 ft 292 kts 115°
2026-05-08 20:33 48.95681 3.07395 8501 ft 294 kts 115°
2026-05-08 20:33 48.94829 3.10202 8976 ft 296 kts 116°
2026-05-08 20:34 48.93970 3.13029 9423 ft 298 kts 116°
2026-05-08 20:34 48.93099 3.15894 9873 ft 300 kts 116°
2026-05-08 20:34 48.91304 3.21783 10375 ft 319 kts 116°
2026-05-08 20:35 48.90350 3.24904 10467 ft 334 kts 116°
2026-05-08 20:35 48.89348 3.28181 10555 ft 349 kts 116°
2026-05-08 20:35 48.88307 3.31580 10662 ft 363 kts 116°
2026-05-08 20:35 48.87216 3.35140 10768 ft 377 kts 116°
2026-05-08 20:36 48.86102 3.38769 10981 ft 387 kts 116°
2026-05-08 20:36 48.84959 3.42489 11382 ft 391 kts 116°
2026-05-08 20:36 48.83812 3.46222 11879 ft 392 kts 116°
2026-05-08 20:36 48.82650 3.49996 12321 ft 395 kts 116°
2026-05-08 20:37 48.81592 3.53854 12711 ft 399 kts 108°
2026-05-08 20:37 48.80954 3.57914 13086 ft 403 kts 101°
2026-05-08 20:37 48.80263 3.62028 13509 ft 405 kts 107°
2026-05-08 20:37 48.79434 3.66100 13914 ft 407 kts 108°
2026-05-08 20:38 48.78588 3.70220 14310 ft 410 kts 108°
2026-05-08 20:38 48.77732 3.74378 14657 ft 414 kts 108°
2026-05-08 20:38 48.76876 3.78527 15064 ft 416 kts 108°
2026-05-08 20:38 48.76007 3.82731 15492 ft 417 kts 108°
2026-05-08 20:39 48.75140 3.86917 15857 ft 420 kts 108°
2026-05-08 20:39 48.74265 3.91128 16190 ft 423 kts 108°
2026-05-08 20:39 48.73378 3.95396 16552 ft 426 kts 108°
2026-05-08 20:39 48.72496 3.99622 16892 ft 428 kts 108°
2026-05-08 20:40 48.71587 4.03976 17206 ft 431 kts 108°
2026-05-08 20:40 48.70683 4.08291 17593 ft 432 kts 108°
2026-05-08 20:40 48.69781 4.12594 17954 ft 433 kts 108°
2026-05-08 20:40 48.68868 4.16935 18259 ft 436 kts 108°
2026-05-08 20:41 48.67946 4.21309 18608 ft 438 kts 108°
2026-05-08 20:41 48.67012 4.25732 18881 ft 441 kts 108°
2026-05-08 20:41 48.66082 4.30128 19131 ft 445 kts 108°
2026-05-08 20:41 48.65132 4.34604 19390 ft 449 kts 108°
2026-05-08 20:42 48.64183 4.39069 19665 ft 451 kts 108°
2026-05-08 20:42 48.63218 4.43597 19933 ft 454 kts 107°
2026-05-08 20:42 48.62254 4.48112 20226 ft 456 kts 107°
2026-05-08 20:42 48.61274 4.52695 20502 ft 458 kts 107°
2026-05-08 20:43 48.60289 4.57287 20773 ft 460 kts 107°
2026-05-08 20:43 48.59299 4.61893 21040 ft 462 kts 107°
2026-05-08 20:43 48.58318 4.66446 21262 ft 465 kts 108°
2026-05-08 20:43 48.57310 4.71120 21498 ft 467 kts 107°
2026-05-08 20:44 48.56296 4.75803 21749 ft 469 kts 107°
2026-05-08 20:44 48.55290 4.80441 21982 ft 471 kts 107°
2026-05-08 20:44 48.54269 4.85143 22203 ft 473 kts 107°
2026-05-08 20:44 48.53238 4.89874 22410 ft 476 kts 107°
2026-05-08 20:45 48.52198 4.94636 22666 ft 478 kts 107°
2026-05-08 20:45 48.51505 4.97807 22787 ft 480 kts 107°
2026-05-08 20:45 48.50120 5.04124 23075 ft 482 kts 107°
2026-05-08 20:45 48.49064 5.08925 23331 ft 483 kts 107°
2026-05-08 20:46 48.48004 5.13735 23558 ft 485 kts 107°
2026-05-08 20:46 48.46926 5.18617 23734 ft 487 kts 107°
2026-05-08 20:46 48.45857 5.23446 23873 ft 491 kts 107°
2026-05-08 20:46 48.44774 5.28328 24035 ft 493 kts 108°
2026-05-08 20:47 48.43694 5.33184 24316 ft 498 kts 108°
2026-05-08 20:47 48.42589 5.38142 24838 ft 499 kts 108°
2026-05-08 20:47 48.41492 5.43048 25340 ft 500 kts 108°
2026-05-08 20:47 48.40368 5.48068 25663 ft 505 kts 107°
2026-05-08 20:48 48.39239 5.53099 25946 ft 510 kts 108°
2026-05-08 20:48 48.38098 5.58166 26267 ft 514 kts 107°
2026-05-08 20:48 48.36951 5.63249 26676 ft 516 kts 108°
2026-05-08 20:48 48.35796 5.68359 27051 ft 519 kts 108°
2026-05-08 20:49 48.34628 5.73513 27335 ft 524 kts 108°
2026-05-08 20:49 48.33454 5.78679 27588 ft 529 kts 108°
2026-05-08 20:49 48.32254 5.83944 27902 ft 533 kts 108°
2026-05-08 20:49 48.31064 5.89158 28241 ft 535 kts 108°
2026-05-08 20:50 48.29850 5.94459 28637 ft 536 kts 108°
2026-05-08 20:50 48.28639 5.99739 28992 ft 538 kts 108°
2026-05-08 20:50 48.27410 6.05077 29028 ft 541 kts 108°
2026-05-08 20:51 48.24963 6.15677 29046 ft 538 kts 108°
2026-05-08 20:51 48.22527 6.26172 29045 ft 539 kts 108°
2026-05-08 20:52 48.20055 6.36773 29089 ft 539 kts 108°
2026-05-08 20:52 48.17562 6.47408 29094 ft 541 kts 109°
2026-05-08 20:53 48.15063 6.58020 29097 ft 541 kts 109°
2026-05-08 20:53 48.12557 6.68612 29100 ft 543 kts 109°
2026-05-08 20:54 48.10024 6.79263 29089 ft 543 kts 110°
2026-05-08 20:54 48.07487 6.89880 29101 ft 547 kts 110°
2026-05-08 20:55 48.04919 7.00573 29110 ft 546 kts 110°
2026-05-08 20:55 48.02357 7.11193 29107 ft 547 kts 110°
2026-05-08 20:56 47.99770 7.21862 29097 ft 545 kts 110°
2026-05-08 20:56 47.97176 7.32512 29095 ft 546 kts 110°